Regional Weather Roundup
Issued by NWS

Home | Current Version | Previous Version | Graphics & Text | Print | Product List | Glossary Off
Versions: 1 2 3 4 5 6 7 8 9 10 11 12 13 14 15 16 17 18 19 20 21 22 23 24 25 26 27 28 29 30 31 32 33 34 35 36 37 38 39 40 41 42 43 44 45 46 47 48 49 50

000
ASUS43 KLSX 250057
RWRMO

WEATHER SUMMARY FOR MISSOURI
NATIONAL WEATHER SERVICE SPRINGFIELD MO
800 PM CDT TUE MAY 24 2016

NOTE: "FAIR" INDICATES FEW OR NO CLOUDS BELOW 12,000 FEET WITH NO
       SIGNIFICANT WEATHER AND/OR OBSTRUCTIONS TO VISIBILITY.
       CURRENT SKY AND/OR WEATHER CONDITIONS ARE NOT AVAILABLE FOR
       CHILLICOTHE AND FARMINGTON.

MOZ001>031-035>038-043-044-053-054-250200-
...NORTHERN AND WESTERN MISSOURI...

CITY           SKY/WX    TMP DP  RH WIND       PRES   REMARKS
KANSAS CTY INT PTCLDY    76  66  71 SE7       29.90S
LEE`S SUMMIT   CLOUDY    76  66  71 SE6       29.92S
ST JOSEPH      CLEAR     77  64  64 SE8       29.88S
CHILLICOTHE      N/A     76  66  71 SE5       29.93F

$$
MOZ066>068-077>081-088>096-101>105-250200-
...SOUTHWEST MISSOURI...

CITY           SKY/WX    TMP DP  RH WIND       PRES   REMARKS
SPRINGFIELD    CLOUDY    67  60  78 S16G24    29.98F
JOPLIN         CLOUDY    73  66  78 SE13      29.91F
BRANSON        CLOUDY    63  63 100 SE8       30.03S

$$
MOZ032>034-039>042-045>050-055>058-069>072-250200-
...CENTRAL MISSOURI...

CITY           SKY/WX    TMP DP  RH WIND       PRES   REMARKS
COLUMBIA       NOT AVBL
JEFFERSON CITY CLOUDY    69  63  81 SE7       29.97F
ROLLA          CLOUDY    64  63  96 NW3       29.98R
SEDALIA        CLOUDY    74  63  68 SE9       29.96S
WARRENSBURG    CLOUDY    73  64  73 SE7       29.92F

$$
MOZ051-052-059>065-250200-
...EAST CENTRAL MISSOURI...

CITY           SKY/WX    TMP DP  RH WIND       PRES   REMARKS
ST LOUIS INTL  CLOUDY    72  61  68 W8        29.98R

$$
MOZ072>076-082>087-097>100-106>115-250200-
...SOUTH CENTRAL AND SOUTHEAST MISSOURI...

CITY           SKY/WX    TMP DP  RH WIND       PRES   REMARKS
CAPE GIRARDEAU CLOUDY    68  64  87 S13G21    29.97F
POPLAR BLUFF   RAIN      67  62  84 SE25G33   29.96F
WEST PLAINS    CLOUDY    63  60  90 S3        30.05R

$$


USA.gov is the U.S. government's official web portal to all federal, state and local government web resources and services.